Location: Alladorf
(49.9620°N, 11.3790°E)
Time: 21:30:29
(UTC+00:00)

Cosmos 1707 Rocket - Pass Details

Date: 29 November 2020
Orbit: 605 x 631 km, 82.5° (Epoch: 25 January)

Event Time Altitude Azimuth Distance (km) Brightness Sun altitude
Rises 05:59:36 0° 345° (NNW) 2,886 6.6 -7.7°
Reaches altitude 10° 06:01:53 10° 340° (NNW) 1,974 5.7 -7.4°
Maximum altitude 06:06:03 47° 267° (W) 807 3.8 -6.8°
Drops below altitude 10° 06:10:12 10° 193° (SSW) 1,951 6.3 -6.2°
Sets 06:12:27 0° 187° (S) 2,850 7.2 -5.9°
